M I D A S
Marine Information and Data Acquisition System
Tripno 278 of the Zeeleeuw from 2002-05-17 07:00:00 to 2002-05-17 15:25:00
Back to CruiseResearch ActivitiesStationsMapUnderway DataData graphs

EquipmentUnitsComments
TimeDGPSUTC
LatitudeDGPSDM.mWGS84
LongitudeDGPSDM.mWGS84
SpeedMeteo Stationm/sRelative wind speed
DirectionMeteo StationdegRelative wind direction
TemperatureMeteo Stationdeg CelciusAir temperature
PressureMeteo StationPaAtmospheric pressure
HumidityMeteo Station%Relative humidity
Missing or incorrect values are displayed as -999
Metereological data collected by the RV Zeeleeuw from 2002-05-17 07:00:00 to 2002-05-17 15:25:00
                                                                                    Next 1000 lines
Time Latitude Longitude Speed Direction Temperature Pressure Humidity
2002-05-17 07:00:08 51°13.673 2°55.873 2 146 17.1 101330 76
2002-05-17 07:00:13 51°13.676 2°55.866 1.6 135 17.1 101330 76
2002-05-17 07:00:18 51°13.68 2°55.857 1.9 132 17.1 101340 76
2002-05-17 07:00:22 51°13.683 2°55.851 3.3 133 17.1 101340 76
2002-05-17 07:00:28 51°13.688 2°55.84 2.9 144 17.1 101340 76
2002-05-17 07:00:33 51°13.692 2°55.831 2.4 147 17.1 101340 76
2002-05-17 07:00:37 51°13.696 2°55.823 2.1 138 17.1 101330 76
2002-05-17 07:00:43 51°13.701 2°55.811 2.6 109 17.1 101330 76
2002-05-17 07:00:48 51°13.705 2°55.802 2.2 107 17.1 101340 75
2002-05-17 07:00:53 51°13.71 2°55.792 2.6 99 17.1 101340 75
2002-05-17 07:00:57 51°13.713 2°55.784 1.7 135 17.1 101330 75
2002-05-17 07:01:03 51°13.719 2°55.771 1.8 171 17.1 101330 75
2002-05-17 07:01:07 51°13.723 2°55.763 1.6 160 17.1 101330 75
2002-05-17 07:01:13 51°13.729 2°55.751 2.1 156 17.1 101330 75
2002-05-17 07:01:18 51°13.734 2°55.74 2.1 179 17.1 101340 75
2002-05-17 07:01:23 51°13.74 2°55.73 1.7 191 17.1 101340 75
2002-05-17 07:01:28 51°13.746 2°55.721 2.3 209 17.1 101340 75
2002-05-17 07:01:32 51°13.751 2°55.713 2.3 224 17.1 101340 75
2002-05-17 07:01:37 51°13.757 2°55.704 1.5 213 17.1 101340 75
2002-05-17 07:01:43 51°13.765 2°55.694 1.8 250 17.1 101340 75
2002-05-17 07:01:48 51°13.772 2°55.686 1 222 17.1 101340 75
2002-05-17 07:01:52 51°13.778 2°55.68 1.8 202 17.1 101340 75
2002-05-17 07:01:57 51°13.785 2°55.672 1.6 210 17.1 101330 75
2002-05-17 07:02:02 51°13.792 2°55.665 1.2 192 17.1 101330 75
2002-05-17 07:02:08 51°13.801 2°55.657 2.1 166 17.1 101340 75
2002-05-17 07:02:13 51°13.809 2°55.65 2.3 197 17.1 101340 75
2002-05-17 07:02:18 51°13.817 2°55.644 2.2 197 17.1 101330 75
2002-05-17 07:02:22 51°13.823 2°55.638 3.2 216 17.1 101330 75
2002-05-17 07:02:28 51°13.832 2°55.631 4.3 191 17.1 101330 75
2002-05-17 07:02:33 51°13.84 2°55.624 3.7 163 17.1 101330 75
2002-05-17 07:02:38 51°13.848 2°55.617 2.5 163 17.1 101340 75
2002-05-17 07:02:42 51°13.854 2°55.612 2.3 178 17.1 101340 75
2002-05-17 07:02:47 51°13.862 2°55.605 2.6 246 17.1 101340 75
2002-05-17 07:02:53 51°13.871 2°55.598 2.3 191 17.1 101340 75
2002-05-17 07:02:57 51°13.877 2°55.592 2.9 188 17.1 101330 75
2002-05-17 07:03:03 51°13.887 2°55.584 2.8 192 17.1 101330 75
2002-05-17 07:03:08 51°13.895 2°55.578 2.2 176 17.1 101330 75
2002-05-17 07:03:13 51°13.903 2°55.572 3.8 166 17.1 101330 75
2002-05-17 07:03:18 51°13.911 2°55.566 3.6 160 17.1 101330 75
2002-05-17 07:03:23 51°13.919 2°55.56 3.3 173 17.1 101330 75
2002-05-17 07:03:28 51°13.927 2°55.554 4.4 145 17.1 101330 75
2002-05-17 07:03:33 51°13.935 2°55.548 4.8 149 17.1 101330 75
2002-05-17 07:03:38 51°13.943 2°55.541 3.6 150 17.1 101330 75
2002-05-17 07:03:43 51°13.951 2°55.535 3.7 147 17.1 101330 75
2002-05-17 07:03:48 51°13.959 2°55.529 3.8 153 17.1 101330 75
2002-05-17 07:03:52 51°13.965 2°55.524 3.7 151 17.1 101330 75
2002-05-17 07:03:58 51°13.975 2°55.517 3.2 150 17.1 101330 75
2002-05-17 07:04:03 51°13.983 2°55.511 2.5 151 17.1 101330 75
2002-05-17 07:04:08 51°13.992 2°55.505 2.5 165 17.1 101330 75
2002-05-17 07:04:12 51°13.998 2°55.5 2.6 158 17.1 101330 75
2002-05-17 07:04:18 51°14.008 2°55.493 2.6 164 17 101330 75
2002-05-17 07:04:23 51°14.016 2°55.487 2.7 147 17 101330 75
2002-05-17 07:04:27 51°14.023 2°55.482 3.2 151 17 101330 75
2002-05-17 07:04:33 51°14.033 2°55.475 3 163 17 101330 75
2002-05-17 07:04:38 51°14.041 2°55.469 3.4 156 17 101330 75
2002-05-17 07:04:43 51°14.05 2°55.463 4.6 149 17 101330 75
2002-05-17 07:04:48 51°14.058 2°55.457 3.6 148 17 101330 75
2002-05-17 07:04:53 51°14.067 2°55.451 3.3 145 17 101330 75
2002-05-17 07:04:58 51°14.075 2°55.445 3.6 155 17 101330 75
2002-05-17 07:05:03 51°14.083 2°55.439 2.8 154 17 101330 75
2002-05-17 07:05:08 51°14.091 2°55.433 3.2 191 17 101340 75
2002-05-17 07:05:12 51°14.098 2°55.428 3 189 17 101340 75
2002-05-17 07:05:17 51°14.106 2°55.422 2.4 177 17 101330 75
2002-05-17 07:05:23 51°14.116 2°55.415 3.6 160 17 101330 75
2002-05-17 07:05:28 51°14.124 2°55.408 4 162 17 101330 75
2002-05-17 07:05:32 51°14.131 2°55.403 3.6 153 17 101330 75
2002-05-17 07:05:37 51°14.139 2°55.397 3.3 151 17 101340 76
2002-05-17 07:05:41 51°14.146 2°55.392 2.9 151 17 101340 76
2002-05-17 07:05:48 51°14.157 2°55.382 3.3 174 17 101330 76
2002-05-17 07:05:53 51°14.166 2°55.376 5.2 169 17 101330 76
2002-05-17 07:05:57 51°14.172 2°55.37 5.5 160 17 101330 76
2002-05-17 07:06:03 51°14.182 2°55.362 4.2 172 17 101330 76
2002-05-17 07:06:08 51°14.19 2°55.355 5 166 17 101330 76
2002-05-17 07:06:12 51°14.196 2°55.349 4.3 164 17 101330 76
2002-05-17 07:06:18 51°14.206 2°55.34 4.5 158 17 101330 76
2002-05-17 07:06:22 51°14.212 2°55.334 3.9 174 17 101330 76
2002-05-17 07:06:28 51°14.221 2°55.324 3.8 163 17 101330 76
2002-05-17 07:06:33 51°14.228 2°55.315 3 160 17 101330 76
2002-05-17 07:06:38 51°14.235 2°55.305 4.3 133 17 101330 75
2002-05-17 07:06:43 51°14.241 2°55.296 3.4 129 17 101330 75
2002-05-17 07:06:48 51°14.248 2°55.286 3.2 153 17 101330 75
2002-05-17 07:06:53 51°14.255 2°55.275 3.8 128 17 101330 75
2002-05-17 07:06:58 51°14.261 2°55.265 3 134 17 101330 75
2002-05-17 07:07:03 51°14.268 2°55.255 2.8 129 17 101330 75
2002-05-17 07:07:08 51°14.274 2°55.245 2.1 165 17 101330 75
2002-05-17 07:07:13 51°14.28 2°55.234 2.9 154 17 101330 75
2002-05-17 07:07:18 51°14.286 2°55.223 2.5 173 17 101330 75
2002-05-17 07:07:23 51°14.292 2°55.212 3.3 154 17 101330 75
2002-05-17 07:07:28 51°14.298 2°55.201 2.5 138 17 101330 75
2002-05-17 07:07:33 51°14.304 2°55.189 3.4 146 17 101330 75
2002-05-17 07:07:38 51°14.31 2°55.177 3 120 17 101330 75
2002-05-17 07:07:43 51°14.315 2°55.165 2 193 17 101330 75
2002-05-17 07:07:48 51°14.32 2°55.153 2.3 169 17 101330 75
2002-05-17 07:07:52 51°14.325 2°55.144 1.4 180 17 101330 75
2002-05-17 07:07:58 51°14.331 2°55.13 1.7 154 17 101340 75
2002-05-17 07:08:03 51°14.337 2°55.118 2.4 131 17 101340 75
2002-05-17 07:08:08 51°14.343 2°55.106 2.2 102 17 101330 75
2002-05-17 07:08:13 51°14.348 2°55.094 1.9 183 17 101330 75
2002-05-17 07:08:18 51°14.353 2°55.082 1.5 183 17 101330 75
2002-05-17 07:08:23 51°14.359 2°55.07 2.3 197 17 101330 75
2002-05-17 07:08:28 51°14.364 2°55.058 1.5 155 17.1 101330 75
2002-05-17 07:08:33 51°14.37 2°55.046 2.6 145 17.1 101330 75
2002-05-17 07:08:37 51°14.374 2°55.035 2.2 152 17 101330 75
2002-05-17 07:08:43 51°14.382 2°55.019 3 155 17 101330 75
2002-05-17 07:08:48 51°14.389 2°55.005 3.2 175 17 101340 75
2002-05-17 07:08:53 51°14.396 2°54.989 3.1 160 17 101340 75
2002-05-17 07:08:58 51°14.405 2°54.972 3.2 159 17 101330 75
2002-05-17 07:09:03 51°14.414 2°54.956 3.9 165 17 101330 75
2002-05-17 07:09:08 51°14.423 2°54.939 4 173 17 101340 75
2002-05-17 07:09:12 51°14.431 2°54.924 3.4 160 17 101340 75
2002-05-17 07:09:17 51°14.442 2°54.906 3.9 160 17 101330 75
2002-05-17 07:09:23 51°14.454 2°54.883 3.6 178 17 101330 75
2002-05-17 07:09:28 51°14.465 2°54.864 3.5 175 17 101330 74
2002-05-17 07:09:33 51°14.475 2°54.844 3.2 177 17 101330 74
2002-05-17 07:09:38 51°14.486 2°54.824 3.5 190 16.9 101330 74
2002-05-17 07:09:43 51°14.497 2°54.804 3.8 194 16.9 101330 74
2002-05-17 07:09:47 51°14.506 2°54.787 3.9 191 16.9 101330 74
2002-05-17 07:09:52 51°14.517 2°54.767 3.9 189 16.9 101330 74
2002-05-17 07:09:58 51°14.53 2°54.742 4.1 188 16.9 101330 74
2002-05-17 07:10:03 51°14.542 2°54.722 3.8 178 16.9 101330 74
2002-05-17 07:10:08 51°14.554 2°54.703 4.3 175 16.9 101330 75
2002-05-17 07:10:12 51°14.564 2°54.689 4.6 183 16.9 101330 75
2002-05-17 07:10:18 51°14.58 2°54.668 4.6 179 16.8 101330 75
2002-05-17 07:10:23 51°14.593 2°54.652 4.5 182 16.8 101330 75
2002-05-17 07:10:28 51°14.607 2°54.637 4.7 180 16.8 101330 75
2002-05-17 07:10:32 51°14.618 2°54.625 4.4 180 16.8 101330 75
2002-05-17 07:10:38 51°14.635 2°54.608 5 177 16.8 101330 75
2002-05-17 07:10:43 51°14.649 2°54.594 5.4 180 16.8 101330 75
2002-05-17 07:10:48 51°14.664 2°54.581 5.5 185 16.8 101330 75
2002-05-17 07:10:52 51°14.676 2°54.57 5.9 187 16.8 101330 75
2002-05-17 07:10:58 51°14.693 2°54.555 5.9 186 16.7 101320 75
2002-05-17 07:11:02 51°14.705 2°54.545 5.9 189 16.7 101320 75
2002-05-17 07:11:08 51°14.723 2°54.53 5.5 194 16.7 101330 75
2002-05-17 07:11:13 51°14.737 2°54.518 5.4 192 16.7 101330 75
2002-05-17 07:11:18 51°14.752 2°54.505 5.4 191 16.7 101330 76
2002-05-17 07:11:23 51°14.767 2°54.493 5.4 190 16.7 101330 76
2002-05-17 07:11:27 51°14.778 2°54.483 6.1 190 16.7 101320 76
2002-05-17 07:11:33 51°14.796 2°54.467 6 190 16.7 101320 76
2002-05-17 07:11:37 51°14.808 2°54.456 5.7 188 16.6 101320 76
2002-05-17 07:11:43 51°14.825 2°54.44 5.4 184 16.6 101320 76
2002-05-17 07:11:48 51°14.839 2°54.426 5.6 185 16.6 101330 76
2002-05-17 07:11:53 51°14.853 2°54.413 5.5 183 16.6 101330 76
2002-05-17 07:11:58 51°14.868 2°54.399 5.2 183 16.5 101320 76
2002-05-17 07:12:03 51°14.882 2°54.385 4.8 182 16.5 101320 76
2002-05-17 07:12:08 51°14.897 2°54.372 5.9 187 16.5 101320 76
2002-05-17 07:12:12 51°14.908 2°54.362 5.4 187 16.5 101320 76
2002-05-17 07:12:17 51°14.923 2°54.348 5.3 186 16.5 101320 77
2002-05-17 07:12:23 51°14.94 2°54.333 6.3 188 16.5 101320 77
2002-05-17 07:12:28 51°14.955 2°54.32 6.1 188 16.5 101320 77
2002-05-17 07:12:32 51°14.966 2°54.309 5.2 183 16.5 101320 77
2002-05-17 07:12:38 51°14.983 2°54.294 5.6 183 16.4 101320 77
2002-05-17 07:12:43 51°14.998 2°54.281 5.4 178 16.4 101320 77
2002-05-17 07:12:47 51°15.009 2°54.271 5.3 182 16.4 101320 77
2002-05-17 07:12:52 51°15.024 2°54.258 4.6 183 16.4 101320 77
2002-05-17 07:12:58 51°15.041 2°54.242 5.7 187 16.4 101320 77
2002-05-17 07:13:03 51°15.055 2°54.228 5.9 183 16.4 101320 77
2002-05-17 07:13:08 51°15.069 2°54.215 6 184 16.3 101330 77
2002-05-17 07:13:13 51°15.084 2°54.201 5.4 187 16.3 101330 77
2002-05-17 07:13:18 51°15.098 2°54.188 6.2 188 16.3 101320 77
2002-05-17 07:13:23 51°15.113 2°54.175 6.4 191 16.3 101320 77
2002-05-17 07:13:28 51°15.127 2°54.161 6.7 193 16.2 101320 77
2002-05-17 07:13:33 51°15.142 2°54.148 6.7 193 16.2 101320 77
2002-05-17 07:13:37 51°15.154 2°54.137 6.4 195 16.2 101320 78
2002-05-17 07:13:43 51°15.171 2°54.121 6.6 198 16.2 101320 78
2002-05-17 07:13:48 51°15.186 2°54.107 7.2 204 16.2 101320 78
2002-05-17 07:13:52 51°15.198 2°54.096 7.5 202 16.2 101320 78
2002-05-17 07:13:58 51°15.216 2°54.078 7.1 200 16.1 101320 78
2002-05-17 07:14:03 51°15.231 2°54.065 6.5 196 16.1 101320 78
2002-05-17 07:14:08 51°15.246 2°54.051 7.1 195 16 101320 79
2002-05-17 07:14:12 51°15.258 2°54.039 7.1 194 16 101320 79
2002-05-17 07:14:18 51°15.276 2°54.022 7 196 15.9 101320 79
2002-05-17 07:14:22 51°15.288 2°54.011 6.5 194 15.9 101320 79
2002-05-17 07:14:28 51°15.306 2°53.994 6.3 191 15.8 101320 80
2002-05-17 07:14:33 51°15.322 2°53.979 6.7 192 15.8 101320 80
2002-05-17 07:14:38 51°15.337 2°53.965 6.4 193 15.8 101320 80
2002-05-17 07:14:43 51°15.352 2°53.951 6.5 191 15.8 101320 80
2002-05-17 07:14:48 51°15.367 2°53.936 6.5 190 15.7 101320 80
2002-05-17 07:14:51 51°15.376 2°53.928 6.7 190 15.7 101320 80
2002-05-17 07:14:57 51°15.394 2°53.911 6.2 188 15.7 101320 80
2002-05-17 07:15:03 51°15.413 2°53.893 7 191 15.7 101320 80
2002-05-17 07:15:08 51°15.428 2°53.879 6.4 192 15.7 101320 81
2002-05-17 07:15:12 51°15.44 2°53.867 6.5 192 15.7 101320 81
2002-05-17 07:15:18 51°15.459 2°53.85 6.3 192 15.6 101320 81
2002-05-17 07:15:23 51°15.474 2°53.835 6.6 191 15.6 101320 81
2002-05-17 07:15:28 51°15.489 2°53.82 6.5 190 15.6 101320 81
2002-05-17 07:15:33 51°15.504 2°53.805 6.7 191 15.6 101320 81
2002-05-17 07:15:37 51°15.516 2°53.793 6.4 188 15.6 101320 81
2002-05-17 07:15:43 51°15.535 2°53.775 7 192 15.6 101320 81
2002-05-17 07:15:48 51°15.55 2°53.76 6.3 190 15.5 101320 81
2002-05-17 07:15:53 51°15.565 2°53.745 6 188 15.5 101320 81
2002-05-17 07:15:58 51°15.581 2°53.731 6.7 187 15.5 101320 81
2002-05-17 07:16:02 51°15.593 2°53.719 6.7 188 15.5 101320 81
2002-05-17 07:16:08 51°15.611 2°53.701 6 189 15.5 101320 82
2002-05-17 07:16:12 51°15.623 2°53.689 6.1 187 15.5 101320 82
2002-05-17 07:16:17 51°15.639 2°53.673 6.9 190 15.4 101320 82
2002-05-17 07:16:23 51°15.657 2°53.656 7 191 15.4 101320 82
2002-05-17 07:16:28 51°15.673 2°53.641 6.9 191 15.4 101310 82
2002-05-17 07:16:33 51°15.688 2°53.626 6.5 190 15.4 101310 82
2002-05-17 07:16:37 51°15.701 2°53.614 7.1 191 15.4 101320 82
2002-05-17 07:16:43 51°15.719 2°53.595 6.7 191 15.4 101320 82
2002-05-17 07:16:48 51°15.734 2°53.58 7.6 192 15.3 101320 82
2002-05-17 07:16:51 51°15.744 2°53.571 7.9 194 15.3 101320 82
2002-05-17 07:16:58 51°15.765 2°53.549 7.5 193 15.3 101310 82
2002-05-17 07:17:03 51°15.781 2°53.534 7.5 192 15.3 101310 82
2002-05-17 07:17:08 51°15.796 2°53.519 7.6 196 15.2 101320 82
2002-05-17 07:17:12 51°15.809 2°53.507 7.1 194 15.2 101320 82
2002-05-17 07:17:18 51°15.828 2°53.489 7.3 195 15.2 101310 83
2002-05-17 07:17:22 51°15.84 2°53.477 7 197 15.2 101310 83
2002-05-17 07:17:28 51°15.858 2°53.459 7.1 193 15.2 101310 83
2002-05-17 07:17:33 51°15.874 2°53.444 6.8 195 15.2 101310 83
2002-05-17 07:17:37 51°15.886 2°53.432 7 196 15.1 101310 83
2002-05-17 07:17:42 51°15.902 2°53.417 7.1 195 15.1 101310 83
2002-05-17 07:17:48 51°15.921 2°53.399 7.1 194 15.1 101310 83
2002-05-17 07:17:52 51°15.933 2°53.388 7.2 194 15.1 101310 83
2002-05-17 07:17:58 51°15.952 2°53.37 7.6 192 15.1 101310 83
2002-05-17 07:18:03 51°15.968 2°53.355 7.3 191 15.1 101310 83
2002-05-17 07:18:08 51°15.983 2°53.339 7.2 195 15 101310 84
2002-05-17 07:18:12 51°15.996 2°53.327 7.2 195 15 101310 84
2002-05-17 07:18:18 51°16.014 2°53.308 7.1 191 15 101310 84
2002-05-17 07:18:23 51°16.03 2°53.292 7.8 192 15 101310 84
2002-05-17 07:18:28 51°16.045 2°53.276 6.9 191 15 101310 84
2002-05-17 07:18:32 51°16.058 2°53.263 7.7 191 15 101310 84
2002-05-17 07:18:38 51°16.076 2°53.244 7 188 14.9 101310 84
2002-05-17 07:18:43 51°16.092 2°53.228 7.5 189 14.9 101310 84
2002-05-17 07:18:47 51°16.104 2°53.215 7.5 189 14.9 101310 84
2002-05-17 07:18:53 51°16.123 2°53.196 7.3 188 14.9 101310 84
2002-05-17 07:18:58 51°16.139 2°53.181 7.2 185 14.9 101310 84
2002-05-17 07:19:03 51°16.155 2°53.166 6.7 191 14.9 101310 84
2002-05-17 07:19:08 51°16.17 2°53.15 6.5 187 14.9 101310 85
2002-05-17 07:19:12 51°16.183 2°53.138 7.2 187 14.9 101310 85
2002-05-17 07:19:18 51°16.202 2°53.119 6.7 186 14.9 101310 85
2002-05-17 07:19:23 51°16.218 2°53.103 7.5 186 14.9 101310 85
2002-05-17 07:19:28 51°16.234 2°53.087 7.1 191 14.8 101310 85
2002-05-17 07:19:32 51°16.246 2°53.074 6.8 186 14.8 101310 85
2002-05-17 07:19:37 51°16.262 2°53.058 6.9 189 14.8 101310 85
2002-05-17 07:19:43 51°16.281 2°53.039 7.6 189 14.8 101310 85
2002-05-17 07:19:47 51°16.294 2°53.027 7.2 191 14.8 101310 85
2002-05-17 07:19:53 51°16.313 2°53.008 8.1 191 14.8 101310 85
2002-05-17 07:19:58 51°16.329 2°52.992 8 194 14.8 101310 85
2002-05-17 07:20:03 51°16.345 2°52.978 7.7 200 14.8 101310 85
2002-05-17 07:20:08 51°16.362 2°52.964 8.5 197 14.8 101310 85
2002-05-17 07:20:12 51°16.376 2°52.952 7.8 195 14.8 101310 85
2002-05-17 07:20:18 51°16.396 2°52.936 7.8 192 14.8 101300 85
2002-05-17 07:20:23 51°16.412 2°52.922 8.3 196 14.8 101300 85
2002-05-17 07:20:28 51°16.429 2°52.91 8.1 196 14.7 101300 85
2002-05-17 07:20:32 51°16.443 2°52.9 8.2 196 14.7 101300 85
2002-05-17 07:20:37 51°16.46 2°52.888 9.2 197 14.7 101300 85
2002-05-17 07:20:43 51°16.481 2°52.875 8.3 199 14.7 101300 85
2002-05-17 07:20:47 51°16.495 2°52.866 8.4 200 14.7 101300 85
2002-05-17 07:20:53 51°16.516 2°52.853 8.2 198 14.7 101300 85
2002-05-17 07:20:58 51°16.533 2°52.843 8.6 199 14.6 101310 85
2002-05-17 07:21:03 51°16.551 2°52.832 9.1 200 14.6 101310 85
2002-05-17 07:21:08 51°16.568 2°52.822 8.7 199 14.6 101300 85
2002-05-17 07:21:13 51°16.586 2°52.811 8.5 198 14.6 101300 85
2002-05-17 07:21:18 51°16.603 2°52.8 8.7 196 14.6 101300 86
2002-05-17 07:21:23 51°16.62 2°52.79 9 198 14.6 101300 86
2002-05-17 07:21:28 51°16.638 2°52.779 9 196 14.5 101300 86
2002-05-17 07:21:33 51°16.655 2°52.768 8.6 197 14.5 101300 86
2002-05-17 07:21:38 51°16.673 2°52.757 8.2 198 14.5 101300 86
2002-05-17 07:21:43 51°16.69 2°52.746 9.1 199 14.5 101300 86
2002-05-17 07:21:48 51°16.708 2°52.735 9.3 196 14.5 101300 86
2002-05-17 07:21:53 51°16.725 2°52.724 9.2 198 14.5 101300 86
2002-05-17 07:21:57 51°16.74 2°52.716 8.7 197 14.4 101300 86
2002-05-17 07:22:03 51°16.761 2°52.703 8.7 197 14.4 101300 86
2002-05-17 07:22:08 51°16.778 2°52.693 9.5 198 14.4 101300 87
2002-05-17 07:22:13 51°16.795 2°52.682 9 198 14.4 101300 87
2002-05-17 07:22:18 51°16.813 2°52.673 8.8 196 14.4 101300 87
2002-05-17 07:22:23 51°16.831 2°52.664 9.9 198 14.4 101300 87
2002-05-17 07:22:28 51°16.849 2°52.656 9.9 196 14.4 101300 87
2002-05-17 07:22:32 51°16.863 2°52.649 9.3 197 14.4 101300 87
2002-05-17 07:22:38 51°16.884 2°52.64 9.2 200 14.3 101300 87
2002-05-17 07:22:43 51°16.902 2°52.633 9 198 14.3 101300 87
2002-05-17 07:22:48 51°16.92 2°52.626 9.3 198 14.3 101300 87
2002-05-17 07:22:53 51°16.938 2°52.618 10.2 200 14.3 101300 87
2002-05-17 07:22:58 51°16.956 2°52.61 9.2 199 14.3 101300 87
2002-05-17 07:23:02 51°16.97 2°52.604 10.4 199 14.3 101300 87
2002-05-17 07:23:08 51°16.992 2°52.594 10.5 199 14.3 101300 87
2002-05-17 07:23:13 51°17.01 2°52.586 10.4 198 14.3 101300 87
2002-05-17 07:23:18 51°17.028 2°52.577 9.4 197 14.3 101300 87
2002-05-17 07:23:23 51°17.045 2°52.569 9.4 199 14.3 101300 87
2002-05-17 07:23:28 51°17.063 2°52.56 10 199 14.2 101300 87
2002-05-17 07:23:33 51°17.081 2°52.553 9.5 198 14.2 101300 87
2002-05-17 07:23:38 51°17.099 2°52.546 9.8 201 14.2 101300 87
2002-05-17 07:23:43 51°17.117 2°52.541 9.6 201 14.2 101300 87
2002-05-17 07:23:48 51°17.136 2°52.536 9.9 206 14.2 101290 88
2002-05-17 07:23:53 51°17.154 2°52.533 10.5 202 14.2 101290 88
2002-05-17 07:23:59 51°17.176 2°52.529 10.3 203 14.2 101300 88
2002-05-17 07:24:04 51°17.195 2°52.527 10.8 203 14.2 101300 88
2002-05-17 07:24:08 51°17.209 2°52.524 10.3 205 14.2 101300 88
2002-05-17 07:24:13 51°17.228 2°52.521 10 203 14.2 101300 88
2002-05-17 07:24:18 51°17.246 2°52.518 10.5 202 14.2 101300 88
2002-05-17 07:24:23 51°17.265 2°52.516 10.2 203 14.2 101300 88
2002-05-17 07:24:28 51°17.284 2°52.513 10.6 203 14.2 101300 88
2002-05-17 07:24:33 51°17.302 2°52.511 10.2 204 14.2 101300 88
2002-05-17 07:24:37 51°17.317 2°52.508 9.8 204 14.2 101300 88
2002-05-17 07:24:42 51°17.336 2°52.506 10.1 203 14.2 101300 88
2002-05-17 07:24:48 51°17.358 2°52.502 10.9 205 14.2 101300 88
2002-05-17 07:24:53 51°17.376 2°52.499 10.4 203 14.2 101300 88
2002-05-17 07:24:58 51°17.395 2°52.496 11 205 14.1 101300 88
2002-05-17 07:25:03 51°17.414 2°52.493 10.2 203 14.1 101300 88
2002-05-17 07:25:08 51°17.432 2°52.49 10.5 203 14.1 101300 88
2002-05-17 07:25:12 51°17.447 2°52.487 11 200 14.1 101300 88
2002-05-17 07:25:17 51°17.466 2°52.484 11 203 14.1 101300 88
2002-05-17 07:25:23 51°17.488 2°52.48 11.9 204 14.1 101300 88
2002-05-17 07:25:28 51°17.506 2°52.477 11.5 203 14.1 101300 88
2002-05-17 07:25:32 51°17.522 2°52.475 11.5 203 14.1 101300 88
2002-05-17 07:25:37 51°17.54 2°52.471 11.8 200 14.1 101300 88
2002-05-17 07:25:43 51°17.562 2°52.467 11.6 201 14.1 101300 88
2002-05-17 07:25:48 51°17.581 2°52.464 11.8 201 14.1 101290 88
2002-05-17 07:25:52 51°17.596 2°52.461 11.2 200 14.1 101290 88
2002-05-17 07:25:58 51°17.618 2°52.457 11.6 200 14.1 101290 88
2002-05-17 07:26:03 51°17.637 2°52.453 11.5 201 14.1 101290 88
2002-05-17 07:26:07 51°17.651 2°52.45 11.7 204 14 101290 89
2002-05-17 07:26:12 51°17.67 2°52.448 11 205 14 101290 89
2002-05-17 07:26:18 51°17.691 2°52.447 11.7 207 14 101290 89
2002-05-17 07:26:23 51°17.71 2°52.447 11 206 14 101290 89
2002-05-17 07:26:28 51°17.728 2°52.448 12 208 14 101300 89
2002-05-17 07:26:33 51°17.746 2°52.449 11.2 206 14 101300 89
2002-05-17 07:26:37 51°17.761 2°52.45 11.3 207 14 101300 89
2002-05-17 07:26:43 51°17.782 2°52.452 11.9 203 14 101300 89
2002-05-17 07:26:48 51°17.8 2°52.455 10.4 209 14 101300 89
2002-05-17 07:26:53 51°17.818 2°52.458 11.9 208 14 101300 89
2002-05-17 07:26:58 51°17.836 2°52.464 11.9 211 14 101290 89
2002-05-17 07:27:02 51°17.85 2°52.469 12.5 211 14 101290 89
2002-05-17 07:27:08 51°17.871 2°52.479 11.8 212 14 101290 89
2002-05-17 07:27:12 51°17.884 2°52.485 11.2 212 14 101290 89
2002-05-17 07:27:17 51°17.901 2°52.494 12.1 213 14 101300 89
2002-05-17 07:27:22 51°17.918 2°52.503 11.3 214 14 101300 89
2002-05-17 07:27:28 51°17.938 2°52.515 12 214 14 101300 89
2002-05-17 07:27:33 51°17.955 2°52.524 11.6 215 14 101300 89
2002-05-17 07:27:37 51°17.969 2°52.533 11.7 214 14 101300 89
2002-05-17 07:27:42 51°17.985 2°52.543 11.3 214 14 101300 89
2002-05-17 07:27:48 51°18.005 2°52.556 11.4 215 14 101300 89
2002-05-17 07:27:53 51°18.021 2°52.569 11.6 215 14 101300 89
2002-05-17 07:27:58 51°18.036 2°52.583 12 217 14 101300 89
2002-05-17 07:28:03 51°18.051 2°52.598 12 221 14 101300 89
2002-05-17 07:28:08 51°18.066 2°52.615 12.2 220 14 101300 89
2002-05-17 07:28:12 51°18.077 2°52.629 12.2 220 14 101300 89
2002-05-17 07:28:18 51°18.092 2°52.652 12.9 223 14 101300 89
2002-05-17 07:28:23 51°18.105 2°52.672 12.7 224 14 101300 89
2002-05-17 07:28:28 51°18.116 2°52.693 12.9 224 14 101300 89
2002-05-17 07:28:33 51°18.126 2°52.716 13.1 226 14 101300 89
2002-05-17 07:28:38 51°18.136 2°52.739 13.3 227 14 101300 89
2002-05-17 07:28:43 51°18.146 2°52.762 13 227 14 101300 89
2002-05-17 07:28:47 51°18.153 2°52.781 12.7 224 14.1 101290 89
2002-05-17 07:28:53 51°18.164 2°52.809 13.1 227 14.1 101290 89
2002-05-17 07:28:58 51°18.173 2°52.833 13.1 226 14.1 101300 89
2002-05-17 07:29:03 51°18.182 2°52.857 13.2 228 14.1 101300 89
2002-05-17 07:29:08 51°18.191 2°52.881 13.2 228 14.1 101300 89
2002-05-17 07:29:13 51°18.2 2°52.905 13.3 229 14.1 101300 89
2002-05-17 07:29:18 51°18.208 2°52.929 12.8 230 14.1 101290 89
2002-05-17 07:29:23 51°18.217 2°52.953 13.8 229 14.1 101290 89
2002-05-17 07:29:27 51°18.225 2°52.972 13.5 228 14.1 101290 89
2002-05-17 07:29:32 51°18.234 2°52.996 14.2 228 14.1 101290 89
2002-05-17 07:29:37 51°18.243 2°53.019 12.7 228 14.2 101300 89
2002-05-17 07:29:43 51°18.254 2°53.048 13.3 230 14.2 101300 89
2002-05-17 07:29:48 51°18.263 2°53.073 12.7 228 14.2 101290 89
2002-05-17 07:29:52 51°18.269 2°53.093 13.3 230 14.2 101290 89
2002-05-17 07:29:57 51°18.276 2°53.118 13 232 14.2 101290 88
2002-05-17 07:30:02 51°18.283 2°53.143 13.4 231 14.2 101290 88
2002-05-17 07:30:07 51°18.29 2°53.169 13.1 230 14.2 101300 88
2002-05-17 07:30:13 51°18.298 2°53.199 13.3 232 14.2 101300 88
2002-05-17 07:30:17 51°18.304 2°53.218 13.2 229 14.2 101300 88
2002-05-17 07:30:23 51°18.312 2°53.248 12.7 230 14.2 101300 88
2002-05-17 07:30:28 51°18.32 2°53.273 13.3 230 14.2 101290 88
2002-05-17 07:30:33 51°18.328 2°53.298 13.2 230 14.2 101290 88
2002-05-17 07:30:38 51°18.336 2°53.322 13.6 232 14.3 101300 88
2002-05-17 07:30:43 51°18.344 2°53.347 13 229 14.3 101300 88
2002-05-17 07:30:48 51°18.352 2°53.372 13.5 232 14.3 101300 88
2002-05-17 07:30:53 51°18.36 2°53.396 12.4 231 14.3 101300 88
2002-05-17 07:30:58 51°18.368 2°53.421 13 231 14.3 101300 88
2002-05-17 07:31:03 51°18.376 2°53.446 13.2 233 14.3 101300 88
2002-05-17 07:31:08 51°18.384 2°53.471 12.7 233 14.3 101300 88
2002-05-17 07:31:12 51°18.39 2°53.491 12.9 232 14.3 101300 88
2002-05-17 07:31:18 51°18.399 2°53.521 13.4 232 14.3 101300 88
2002-05-17 07:31:23 51°18.407 2°53.546 13.6 232 14.3 101300 88
2002-05-17 07:31:28 51°18.415 2°53.57 13.5 231 14.3 101300 88
2002-05-17 07:31:33 51°18.422 2°53.595 13 232 14.3 101300 88
2002-05-17 07:31:38 51°18.431 2°53.619 12.9 233 14.3 101300 88
2002-05-17 07:31:43 51°18.439 2°53.644 13 233 14.3 101300 88
2002-05-17 07:31:48 51°18.447 2°53.668 13.3 232 14.3 101300 88
2002-05-17 07:31:51 51°18.452 2°53.683 13.5 234 14.3 101300 88
2002-05-17 07:31:58 51°18.463 2°53.718 13.2 232 14.3 101300 88
2002-05-17 07:32:03 51°18.471 2°53.742 12.9 233 14.3 101300 88
2002-05-17 07:32:08 51°18.479 2°53.767 13.6 232 14.3 101300 88
2002-05-17 07:32:13 51°18.487 2°53.792 12.9 233 14.3 101300 88
2002-05-17 07:32:17 51°18.494 2°53.811 12.9 231 14.3 101300 88
2002-05-17 07:32:23 51°18.503 2°53.841 13.5 233 14.3 101300 88
2002-05-17 07:32:28 51°18.512 2°53.865 13.9 232 14.3 101300 88
2002-05-17 07:32:33 51°18.52 2°53.889 13.4 233 14.3 101300 88
2002-05-17 07:32:38 51°18.528 2°53.913 14 233 14.3 101300 88
2002-05-17 07:32:43 51°18.537 2°53.937 13.5 231 14.3 101300 88
2002-05-17 07:32:48 51°18.545 2°53.961 13.3 231 14.3 101300 88
2002-05-17 07:32:53 51°18.553 2°53.985 13.7 231 14.3 101300 88
2002-05-17 07:32:58 51°18.561 2°54.009 12.8 233 14.3 101300 88
2002-05-17 07:33:03 51°18.569 2°54.034 12.8 231 14.3 101300 88
2002-05-17 07:33:08 51°18.577 2°54.059 13.2 231 14.3 101300 88
2002-05-17 07:33:13 51°18.586 2°54.083 13.7 230 14.3 101300 88
2002-05-17 07:33:18 51°18.594 2°54.107 13.6 233 14.3 101300 88
2002-05-17 07:33:23 51°18.602 2°54.131 13.2 233 14.3 101300 88
2002-05-17 07:33:27 51°18.609 2°54.15 13 233 14.3 101300 88
2002-05-17 07:33:33 51°18.619 2°54.179 13.2 232 14.3 101300 88
2002-05-17 07:33:38 51°18.627 2°54.203 13.1 232 14.3 101300 88
2002-05-17 07:33:43 51°18.636 2°54.228 13.6 234 14.3 101300 88
2002-05-17 07:33:47 51°18.642 2°54.247 13.3 233 14.3 101300 88
2002-05-17 07:33:53 51°18.652 2°54.276 12.9 232 14.3 101300 88
2002-05-17 07:33:58 51°18.66 2°54.3 12.7 231 14.3 101300 88
2002-05-17 07:34:02 51°18.666 2°54.319 13.7 230 14.3 101300 88
2002-05-17 07:34:08 51°18.677 2°54.349 13.8 232 14.3 101300 88
2002-05-17 07:34:13 51°18.685 2°54.372 13 231 14.3 101300 88
2002-05-17 07:34:18 51°18.693 2°54.396 12.9 232 14.3 101300 88
2002-05-17 07:34:23 51°18.701 2°54.42 13.2 232 14.3 101300 88
2002-05-17 07:34:28 51°18.71 2°54.445 13.3 230 14.3 101310 88
2002-05-17 07:34:33 51°18.719 2°54.469 13 230 14.3 101310 88
2002-05-17 07:34:38 51°18.727 2°54.493 12.7 230 14.3 101300 88
2002-05-17 07:34:42 51°18.734 2°54.512 13.4 230 14.3 101300 88
2002-05-17 07:34:48 51°18.744 2°54.541 12.6 231 14.3 101300 88
2002-05-17 07:34:53 51°18.752 2°54.565 12.9 231 14.3 101300 88
2002-05-17 07:34:58 51°18.761 2°54.589 13.5 230 14.3 101300 88
2002-05-17 07:35:03 51°18.769 2°54.613 13.2 230 14.3 101300 88
2002-05-17 07:35:08 51°18.777 2°54.638 13.3 230 14.3 101300 88
2002-05-17 07:35:13 51°18.786 2°54.662 13.1 228 14.3 101300 88
2002-05-17 07:35:17 51°18.793 2°54.681 13.3 231 14.3 101300 88
2002-05-17 07:35:22 51°18.801 2°54.705 13.8 230 14.3 101300 88
2002-05-17 07:35:28 51°18.811 2°54.734 13.3 231 14.4 101300 88
2002-05-17 07:35:33 51°18.819 2°54.758 13.5 231 14.4 101300 88
2002-05-17 07:35:37 51°18.826 2°54.778 13.2 231 14.4 101300 88
2002-05-17 07:35:42 51°18.835 2°54.802 13.8 232 14.4 101300 88
2002-05-17 07:35:48 51°18.845 2°54.831 12.8 232 14.4 101300 88
2002-05-17 07:35:53 51°18.853 2°54.854 13.6 233 14.4 101300 88
2002-05-17 07:35:58 51°18.862 2°54.878 13.8 233 14.4 101300 88
2002-05-17 07:36:03 51°18.87 2°54.902 13.9 233 14.4 101300 88
2002-05-17 07:36:08 51°18.878 2°54.926 14.2 234 14.3 101290 88
2002-05-17 07:36:12 51°18.884 2°54.945 13.5 232 14.3 101290 88
2002-05-17 07:36:18 51°18.894 2°54.974 13.6 232 14.4 101300 88
2002-05-17 07:36:23 51°18.903 2°54.998 13 234 14.4 101300 88
2002-05-17 07:36:28 51°18.912 2°55.022 12.9 233 14.4 101300 87
2002-05-17 07:36:33 51°18.921 2°55.046 14 234 14.4 101300 87
2002-05-17 07:36:37 51°18.927 2°55.065 14 232 14.4 101300 87
2002-05-17 07:36:42 51°18.936 2°55.089 13.2 233 14.4 101300 87
2002-05-17 07:36:48 51°18.947 2°55.118 13.3 234 14.4 101300 87
2002-05-17 07:36:53 51°18.955 2°55.142 13.2 233 14.4 101300 87
2002-05-17 07:36:58 51°18.964 2°55.166 12.9 233 14.4 101290 87
2002-05-17 07:37:03 51°18.972 2°55.19 13.9 233 14.4 101290 87
2002-05-17 07:37:08 51°18.981 2°55.214 13.9 233 14.4 101300 87
2002-05-17 07:37:12 51°18.988 2°55.233 13.7 234 14.4 101300 87
2002-05-17 07:37:18 51°18.999 2°55.262 13.5 235 14.4 101300 87
2002-05-17 07:37:23 51°19.008 2°55.286 13.3 233 14.4 101300 87
2002-05-17 07:37:28 51°19.017 2°55.31 13.5 234 14.4 101300 87
2002-05-17 07:37:33 51°19.025 2°55.334 12.7 234 14.4 101300 87
2002-05-17 07:37:37 51°19.031 2°55.353 13.7 235 14.4 101300 87
2002-05-17 07:37:43 51°19.041 2°55.382 13.2 234 14.4 101300 87
2002-05-17 07:37:48 51°19.05 2°55.407 13.6 234 14.4 101300 87
2002-05-17 07:37:53 51°19.058 2°55.431 13.7 234 14.4 101300 87
2002-05-17 07:37:58 51°19.067 2°55.456 12.9 232 14.4 101300 88
2002-05-17 07:38:03 51°19.076 2°55.481 13.4 232 14.4 101300 88
2002-05-17 07:38:08 51°19.084 2°55.505 13.5 235 14.4 101300 88
2002-05-17 07:38:12 51°19.091 2°55.525 12.4 231 14.4 101300 88
2002-05-17 07:38:18 51°19.101 2°55.555 12.5 232 14.4 101300 88
2002-05-17 07:38:23 51°19.11 2°55.579 12.6 234 14.4 101300 88
2002-05-17 07:38:28 51°19.118 2°55.604 13.3 231 14.4 101300 88
2002-05-17 07:38:33 51°19.127 2°55.629 13 231 14.4 101300 88
2002-05-17 07:38:37 51°19.133 2°55.648 12.3 234 14.3 101300 88
2002-05-17 07:38:42 51°19.141 2°55.673 13.5 234 14.3 101300 88
2002-05-17 07:38:48 51°19.15 2°55.703 12.7 235 14.3 101300 88
2002-05-17 07:38:53 51°19.158 2°55.728 13.5 235 14.3 101300 88
2002-05-17 07:38:58 51°19.165 2°55.753 13.9 235 14.4 101300 88
2002-05-17 07:39:03 51°19.172 2°55.779 12.8 233 14.4 101300 88
2002-05-17 07:39:08 51°19.179 2°55.804 13.2 234 14.4 101300 88
2002-05-17 07:39:13 51°19.186 2°55.829 13.7 235 14.4 101300 88
2002-05-17 07:39:18 51°19.193 2°55.855 13.6 235 14.3 101300 88
2002-05-17 07:39:23 51°19.2 2°55.88 12.4 233 14.3 101300 88
2002-05-17 07:39:28 51°19.207 2°55.905 13.3 234 14.3 101300 88
2002-05-17 07:39:33 51°19.215 2°55.93 13.3 235 14.3 101300 88
2002-05-17 07:39:37 51°19.221 2°55.95 13 235 14.3 101300 88
2002-05-17 07:39:42 51°19.228 2°55.975 13.9 234 14.3 101300 88
2002-05-17 07:39:48 51°19.236 2°56.005 13.9 237 14.3 101310 88
2002-05-17 07:39:53 51°19.243 2°56.03 13.1 235 14.3 101310 88
2002-05-17 07:39:57 51°19.249 2°56.051 13.9 234 14.3 101300 88
2002-05-17 07:40:03 51°19.258 2°56.081 13.8 232 14.3 101300 88
2002-05-17 07:40:08 51°19.265 2°56.107 13.6 235 14.3 101300 88
2002-05-17 07:40:13 51°19.272 2°56.132 13.5 234 14.3 101300 88
2002-05-17 07:40:18 51°19.279 2°56.157 13.4 236 14.3 101300 88
2002-05-17 07:40:22 51°19.284 2°56.177 13.3 235 14.3 101300 88
2002-05-17 07:40:28 51°19.293 2°56.207 14.3 235 14.3 101300 88
2002-05-17 07:40:33 51°19.3 2°56.232 13 233 14.3 101300 88
2002-05-17 07:40:37 51°19.306 2°56.252 13.3 234 14.3 101300 88
2002-05-17 07:40:42 51°19.313 2°56.277 13.1 235 14.3 101300 88
2002-05-17 07:40:48 51°19.322 2°56.307 13.5 234 14.4 101300 88
2002-05-17 07:40:53 51°19.329 2°56.332 13.7 234 14.4 101300 88
2002-05-17 07:40:58 51°19.337 2°56.357 13.7 234 14.3 101300 88
2002-05-17 07:41:03 51°19.344 2°56.382 14 235 14.3 101300 88
2002-05-17 07:41:07 51°19.35 2°56.402 13.2 236 14.3 101300 88
2002-05-17 07:41:13 51°19.358 2°56.432 12.8 234 14.3 101300 88
2002-05-17 07:41:18 51°19.365 2°56.457 13.6 237 14.3 101300 88
2002-05-17 07:41:23 51°19.371 2°56.483 13.9 235 14.3 101300 88
2002-05-17 07:41:28 51°19.378 2°56.508 13.4 236 14.3 101300 88
2002-05-17 07:41:33 51°19.386 2°56.533 12.8 234 14.3 101300 88
2002-05-17 07:41:38 51°19.393 2°56.558 13.4 235 14.4 101310 88
2002-05-17 07:41:43 51°19.4 2°56.583 13.6 236 14.4 101310 88
2002-05-17 07:41:48 51°19.408 2°56.607 13.5 234 14.3 101300 88
2002-05-17 07:41:52 51°19.413 2°56.628 13.1 236 14.3 101300 88
2002-05-17 07:41:58 51°19.422 2°56.657 13.1 237 14.3 101300 88
2002-05-17 07:42:03 51°19.43 2°56.682 12.9 236 14.3 101300 88
2002-05-17 07:42:07 51°19.436 2°56.702 14.1 235 14.4 101300 88
2002-05-17 07:42:13 51°19.444 2°56.733 14 237 14.4 101300 88
2002-05-17 07:42:18 51°19.451 2°56.758 13.1 238 14.4 101300 88
2002-05-17 07:42:23 51°19.457 2°56.784 13.7 237 14.4 101300 88
2002-05-17 07:42:28 51°19.463 2°56.809 13.4 238 14.4 101300 88
2002-05-17 07:42:33 51°19.469 2°56.835 13.4 235 14.4 101300 88
2002-05-17 07:42:37 51°19.474 2°56.855 13.4 238 14.4 101300 88
2002-05-17 07:42:43 51°19.482 2°56.886 12.9 235 14.4 101300 88
2002-05-17 07:42:48 51°19.488 2°56.912 12.8 236 14.4 101300 88
2002-05-17 07:42:53 51°19.494 2°56.937 13.6 237 14.4 101300 88
2002-05-17 07:42:58 51°19.5 2°56.963 14.1 237 14.4 101300 88
2002-05-17 07:43:03 51°19.506 2°56.988 12.7 233 14.4 101300 88
2002-05-17 07:43:08 51°19.513 2°57.014 13 234 14.4 101300 88
2002-05-17 07:43:13 51°19.519 2°57.04 13.1 234 14.4 101300 88
2002-05-17 07:43:17 51°19.524 2°57.06 13.5 237 14.4 101300 88
2002-05-17 07:43:23 51°19.531 2°57.09 12.5 235 14.4 101300 88
2002-05-17 07:43:28 51°19.538 2°57.116 14.2 235 14.4 101300 88
2002-05-17 07:43:33 51°19.544 2°57.142 14.6 236 14.4 101300 88
2002-05-17 07:43:38 51°19.55 2°57.167 14.3 235 14.4 101300 88
2002-05-17 07:43:43 51°19.556 2°57.193 14.6 234 14.4 101300 88
2002-05-17 07:43:48 51°19.563 2°57.218 13.1 235 14.4 101300 88
2002-05-17 07:43:53 51°19.569 2°57.244 14.3 237 14.4 101300 88
2002-05-17 07:43:58 51°19.575 2°57.269 13.5 236 14.4 101300 88
2002-05-17 07:44:03 51°19.581 2°57.295 14.4 236 14.4 101300 88
2002-05-17 07:44:08 51°19.587 2°57.32 13.7 236 14.4 101300 88
2002-05-17 07:44:13 51°19.594 2°57.346 13.7 237 14.4 101300 88
2002-05-17 07:44:18 51°19.6 2°57.371 13.8 235 14.4 101300 88
2002-05-17 07:44:23 51°19.606 2°57.396 13.9 236 14.4 101300 88
2002-05-17 07:44:27 51°19.611 2°57.417 14.6 237 14.4 101300 88
2002-05-17 07:44:33 51°19.619 2°57.447 14.4 235 14.4 101300 88
2002-05-17 07:44:38 51°19.625 2°57.471 14.3 237 14.4 101290 88
2002-05-17 07:44:43 51°19.631 2°57.497 13.7 237 14.4 101290 88
2002-05-17 07:44:48 51°19.637 2°57.522 13.7 237 14.4 101300 88
2002-05-17 07:44:53 51°19.644 2°57.547 13.9 236 14.4 101300 88
2002-05-17 07:44:58 51°19.65 2°57.572 14.5 237 14.4 101290 88
2002-05-17 07:45:02 51°19.655 2°57.593 13.2 236 14.4 101290 88
2002-05-17 07:45:08 51°19.662 2°57.623 14 236 14.4 101290 88
2002-05-17 07:45:12 51°19.667 2°57.643 13.3 236 14.4 101290 88
2002-05-17 07:45:18 51°19.674 2°57.674 14.2 236 14.4 101300 88
2002-05-17 07:45:23 51°19.68 2°57.699 13.7 237 14.4 101300 88
2002-05-17 07:45:28 51°19.686 2°57.724 14 238 14.4 101290 88
2002-05-17 07:45:33 51°19.692 2°57.749 14 236 14.4 101290 88
2002-05-17 07:45:37 51°19.697 2°57.769 14.1 236 14.4 101300 88
2002-05-17 07:45:42 51°19.704 2°57.794 13.4 235 14.4 101300 88
2002-05-17 07:45:48 51°19.711 2°57.824 13.6 237 14.4 101300 88
2002-05-17 07:45:53 51°19.718 2°57.849 14 235 14.4 101300 88
2002-05-17 07:45:58 51°19.724 2°57.874 14.3 237 14.4 101300 88
2002-05-17 07:46:03 51°19.73 2°57.899 14.5 237 14.4 101300 88
2002-05-17 07:46:08 51°19.737 2°57.925 14.1 236 14.4 101300 88
2002-05-17 07:46:13 51°19.744 2°57.95 13.6 238 14.4 101300 88
2002-05-17 07:46:18 51°19.751 2°57.976 14.3 236 14.4 101300 88
2002-05-17 07:46:23 51°19.757 2°58.002 14.1 238 14.4 101300 88
2002-05-17 07:46:28 51°19.764 2°58.028 14 237 14.4 101300 88
2002-05-17 07:46:32 51°19.769 2°58.047 12.9 237 14.4 101300 88
2002-05-17 07:46:38 51°19.776 2°58.077 14 236 14.4 101300 88
2002-05-17 07:46:43 51°19.783 2°58.102 14.8 238 14.4 101300 88
2002-05-17 07:46:47 51°19.788 2°58.123 14.2 235 14.4 101300 87
2002-05-17 07:46:53 51°19.796 2°58.153 15.3 237 14.4 101300 87
2002-05-17 07:46:58 51°19.802 2°58.178 14.3 237 14.4 101300 87
2002-05-17 07:47:03 51°19.808 2°58.202 14.1 236 14.4 101300 87
2002-05-17 07:47:08 51°19.814 2°58.227 14.7 237 14.4 101290 87
2002-05-17 07:47:13 51°19.82 2°58.251 14.2 237 14.4 101290 87
2002-05-17 07:47:18 51°19.827 2°58.275 14.9 238 14.4 101290 87
2002-05-17 07:47:23 51°19.833 2°58.3 13.8 237 14.4 101290 87
2002-05-17 07:47:28 51°19.839 2°58.324 14.6 237 14.4 101290 87
2002-05-17 07:47:32 51°19.844 2°58.344 13.9 235 14.4 101290 87
2002-05-17 07:47:38 51°19.851 2°58.373 14.5 237 14.4 101290 87
2002-05-17 07:47:43 51°19.856 2°58.397 14.3 237 14.4 101290 87
2002-05-17 07:47:47 51°19.862 2°58.416 14.1 239 14.4 101300 87
2002-05-17 07:47:53 51°19.869 2°58.446 14.7 239 14.4 101300 87
2002-05-17 07:47:58 51°19.875 2°58.47 14.6 238 14.4 101290 87
2002-05-17 07:48:03 51°19.881 2°58.494 14.1 239 14.4 101290 87
2002-05-17 07:48:08 51°19.887 2°58.519 13.9 238 14.4 101290 87
2002-05-17 07:48:13 51°19.893 2°58.543 14.9 238 14.4 101290 87
2002-05-17 07:48:18 51°19.899 2°58.568 15.2 235 14.4 101300 87
2002-05-17 07:48:23 51°19.905 2°58.592 14.8 237 14.4 101300 87
2002-05-17 07:48:28 51°19.911 2°58.617 14 238 14.4 101300 87
2002-05-17 07:48:33 51°19.917 2°58.641 15 237 14.4 101300 87
2002-05-17 07:48:37 51°19.922 2°58.66 14.5 236 14.4 101290 87
2002-05-17 07:48:43 51°19.93 2°58.689 13.8 236 14.4 101290 87
2002-05-17 07:48:48 51°19.936 2°58.714 13.9 237 14.4 101300 87
2002-05-17 07:48:53 51°19.942 2°58.738 15.1 237 14.4 101300 87
2002-05-17 07:48:58 51°19.948 2°58.763 13.7 236 14.4 101300 87
2002-05-17 07:49:03 51°19.955 2°58.787 13.7 238 14.4 101300 87
2002-05-17 07:49:08 51°19.961 2°58.812 14 237 14.4 101300 87
2002-05-17 07:49:13 51°19.967 2°58.836 14.1 238 14.4 101300 87
2002-05-17 07:49:18 51°19.973 2°58.86 13.9 236 14.4 101300 87
2002-05-17 07:49:23 51°19.979 2°58.885 14.4 236 14.4 101300 87
2002-05-17 07:49:28 51°19.986 2°58.909 13.2 235 14.4 101290 87
2002-05-17 07:49:32 51°19.99 2°58.929 14 235 14.4 101290 87
2002-05-17 07:49:38 51°19.998 2°58.958 14.3 237 14.4 101290 87
2002-05-17 07:49:43 51°20.005 2°58.982 14.7 235 14.4 101290 87
2002-05-17 07:49:47 51°20.01 2°59.002 14.5 236 14.4 101290 87
2002-05-17 07:49:53 51°20.017 2°59.031 14.7 237 14.4 101290 87
2002-05-17 07:49:58 51°20.024 2°59.055 14.8 236 14.4 101290 87
2002-05-17 07:50:03 51°20.03 2°59.079 14.4 237 14.4 101290 87
2002-05-17 07:50:08 51°20.036 2°59.104 13.6 237 14.4 101290 87
2002-05-17 07:50:13 51°20.042 2°59.128 14 235 14.4 101290 87
2002-05-17 07:50:18 51°20.049 2°59.152 13.7 235 14.4 101290 87
2002-05-17 07:50:23 51°20.055 2°59.177 14.4 236 14.4 101290 87
2002-05-17 07:50:28 51°20.061 2°59.201 14 234 14.4 101290 87
2002-05-17 07:50:33 51°20.067 2°59.226 14.3 236 14.4 101290 87
2002-05-17 07:50:37 51°20.072 2°59.245 13.9 236 14.4 101290 87
2002-05-17 07:50:43 51°20.079 2°59.274 15 238 14.4 101290 87
2002-05-17 07:50:48 51°20.086 2°59.299 14 235 14.4 101290 87
2002-05-17 07:50:53 51°20.092 2°59.323 13.8 236 14.4 101290 87
2002-05-17 07:50:57 51°20.097 2°59.343 14.5 237 14.4 101290 87
2002-05-17 07:51:03 51°20.104 2°59.372 13.6 235 14.4 101290 87
2002-05-17 07:51:08 51°20.11 2°59.396 13.9 238 14.4 101290 87
2002-05-17 07:51:13 51°20.116 2°59.42 14.2 234 14.4 101290 87
2002-05-17 07:51:17 51°20.121 2°59.44 14.1 235 14.4 101290 87
2002-05-17 07:51:23 51°20.129 2°59.469 14.9 235 14.4 101290 87
2002-05-17 07:51:28 51°20.135 2°59.494 14.6 235 14.4 101290 87
2002-05-17 07:51:34 51°20.142 2°59.523 13.9 233 14.4 101290 87
2002-05-17 07:51:44 51°20.154 2°59.571 14.3 234 14.4 101290 87
2002-05-17 07:51:48 51°20.159 2°59.591 13.5 236 14.4 101290 87
2002-05-17 07:51:54 51°20.166 2°59.62 14.3 236 14.4 101290 87
2002-05-17 07:51:59 51°20.172 2°59.645 13.3 234 14.4 101290 87
2002-05-17 07:52:04 51°20.178 2°59.669 14 236 14.4 101290 87
2002-05-17 07:52:08 51°20.183 2°59.688 14.1 236 14.4 101290 87
2002-05-17 07:52:14 51°20.19 2°59.718 13.2 236 14.4 101290 87
2002-05-17 07:52:19 51°20.196 2°59.742 13.6 235 14.4 101290 87
2002-05-17 07:52:24 51°20.202 2°59.766 14.3 236 14.4 101290 87
2002-05-17 07:52:28 51°20.207 2°59.786 14.5 234 14.4 101300 87
2002-05-17 07:52:34 51°20.214 2°59.815 14.3 235 14.4 101300 87
2002-05-17 07:52:39 51°20.22 2°59.84 13.8 237 14.4 101300 87
2002-05-17 07:52:44 51°20.226 2°59.864 13.9 235 14.4 101300 87
2002-05-17 07:52:49 51°20.232 2°59.889 13.9 234 14.4 101290 87
2002-05-17 07:52:54 51°20.239 2°59.913 14.2 235 14.4 101290 87
2002-05-17 07:52:59 51°20.245 2°59.937 12.9 235 14.4 101290 87
2002-05-17 07:53:04 51°20.251 2°59.962 13.1 235 14.4 101290 87
2002-05-17 07:53:09 51°20.258 2°59.987 13.9 235 14.4 101300 87
2002-05-17 07:53:14 51°20.264 3°0.011 14.3 235 14.4 101300 87
2002-05-17 07:53:18 51°20.269 3°0.031 13.7 233 14.4 101290 87
2002-05-17 07:53:24 51°20.276 3°0.06 14.4 234 14.4 101290 87
2002-05-17 07:53:29 51°20.282 3°0.084 15.3 235 14.4 101290 87
2002-05-17 07:53:34 51°20.288 3°0.109 14 234 14.4 101290 87
2002-05-17 07:53:39 51°20.295 3°0.134 14.4 237 14.4 101290 87
2002-05-17 07:53:43 51°20.3 3°0.153 14 235 14.4 101290 87
2002-05-17 07:53:49 51°20.307 3°0.183 14.8 236 14.4 101300 87
2002-05-17 07:53:54 51°20.313 3°0.207 13.9 235 14.4 101300 87
2002-05-17 07:53:59 51°20.319 3°0.232 14.4 236 14.4 101290 87
2002-05-17 07:54:04 51°20.325 3°0.256 13.8 236 14.4 101290 87
2002-05-17 07:54:09 51°20.332 3°0.281 13.9 236 14.4 101300 87
2002-05-17 07:54:14 51°20.338 3°0.305 14 235 14.4 101300 87
2002-05-17 07:54:19 51°20.344 3°0.33 14.1 238 14.4 101290 87
2002-05-17 07:54:24 51°20.351 3°0.354 14.3 236 14.4 101290 87
2002-05-17 07:54:28 51°20.356 3°0.374 14.5 235 14.4 101290 87
2002-05-17 07:54:33 51°20.362 3°0.398 14.7 234 14.4 101290 87
2002-05-17 07:54:39 51°20.369 3°0.428 14.2 235 14.4 101290 87
2002-05-17 07:54:44 51°20.376 3°0.452 14.2 235 14.4 101290 87
2002-05-17 07:54:49 51°20.382 3°0.477 14.3 234 14.4 101290 87
2002-05-17 07:54:54 51°20.388 3°0.501 14.6 235 14.4 101290 87
2002-05-17 07:54:59 51°20.395 3°0.526 15.2 235 14.4 101290 87
2002-05-17 07:55:04 51°20.401 3°0.55 13.9 232 14.4 101290 87
2002-05-17 07:55:09 51°20.408 3°0.574 14.1 234 14.4 101290 87
2002-05-17 07:55:14 51°20.414 3°0.599 13.8 236 14.4 101290 87
2002-05-17 07:55:19 51°20.42 3°0.623 13.5 232 14.4 101290 87
2002-05-17 07:55:24 51°20.426 3°0.648 14.1 235 14.4 101290 87
2002-05-17 07:55:29 51°20.432 3°0.672 13.4 234 14.4 101290 87
2002-05-17 07:55:34 51°20.438 3°0.697 14.6 235 14.4 101290 87
2002-05-17 07:55:39 51°20.444 3°0.721 13.3 234 14.4 101300 87
2002-05-17 07:55:44 51°20.45 3°0.746 13.1 233 14.4 101300 87
2002-05-17 07:55:49 51°20.456 3°0.77 14.1 233 14.4 101290 87
2002-05-17 07:55:54 51°20.462 3°0.795 13.4 234 14.4 101290 87
2002-05-17 07:55:59 51°20.468 3°0.819 13.7 234 14.4 101290 87
2002-05-17 07:56:04 51°20.474 3°0.843 12.9 233 14.4 101290 87
2002-05-17 07:56:09 51°20.48 3°0.868 13.3 235 14.4 101290 87
2002-05-17 07:56:14 51°20.487 3°0.892 12.7 232 14.4 101290 87
2002-05-17 07:56:19 51°20.493 3°0.917 12.8 234 14.4 101290 87
2002-05-17 07:56:24 51°20.499 3°0.941 13.4 232 14.4 101290 87
2002-05-17 07:56:29 51°20.505 3°0.965 13.2 234 14.4 101290 87
2002-05-17 07:56:34 51°20.512 3°0.99 13.6 232 14.4 101290 87
2002-05-17 07:56:39 51°20.518 3°1.014 12.6 231 14.4 101290 87
2002-05-17 07:56:44 51°20.524 3°1.039 12.8 233 14.4 101290 87
2002-05-17 07:56:48 51°20.529 3°1.058 13.7 232 14.4 101290 87
2002-05-17 07:56:53 51°20.535 3°1.083 12.8 234 14.4 101290 87
2002-05-17 07:56:59 51°20.542 3°1.112 14 232 14.4 101290 87
2002-05-17 07:57:04 51°20.547 3°1.137 13.6 233 14.4 101290 87
2002-05-17 07:57:09 51°20.554 3°1.161 13.1 234 14.4 101300 87
2002-05-17 07:57:14 51°20.559 3°1.186 14.1 234 14.4 101300 87
2002-05-17 07:57:19 51°20.566 3°1.21 13 235 14.4 101300 87
2002-05-17 07:57:24 51°20.572 3°1.235 14.5 233 14.4 101300 87
2002-05-17 07:57:29 51°20.578 3°1.259 13.4 234 14.4 101300 87
2002-05-17 07:57:34 51°20.584 3°1.284 13.8 232 14.4 101300 87
2002-05-17 07:57:39 51°20.591 3°1.308 13 234 14.4 101290 87
2002-05-17 07:57:44 51°20.597 3°1.332 13.5 233 14.4 101290 87
2002-05-17 07:57:49 51°20.603 3°1.356 13.2 233 14.4 101300 87
2002-05-17 07:57:54 51°20.61 3°1.381 13.5 234 14.4 101300 87
2002-05-17 07:57:59 51°20.616 3°1.405 12.9 234 14.5 101300 87
2002-05-17 07:58:04 51°20.622 3°1.429 13.6 234 14.5 101300 87
2002-05-17 07:58:09 51°20.629 3°1.454 14.2 232 14.5 101300 87
2002-05-17 07:58:14 51°20.635 3°1.478 14.1 234 14.5 101300 87
2002-05-17 07:58:19 51°20.641 3°1.503 13.4 234 14.5 101300 87
2002-05-17 07:58:24 51°20.647 3°1.527 14.3 236 14.5 101300 87
2002-05-17 07:58:29 51°20.652 3°1.552 13.4 234 14.5 101300 87
2002-05-17 07:58:34 51°20.658 3°1.577 13.9 233 14.5 101300 87
2002-05-17 07:58:39 51°20.664 3°1.601 12.8 235 14.5 101300 87
2002-05-17 07:58:43 51°20.669 3°1.621 13.3 233 14.5 101300 87
2002-05-17 07:58:48 51°20.674 3°1.646 13.6 233 14.5 101300 87
2002-05-17 07:58:53 51°20.68 3°1.67 13.6 235 14.5 101300 87
2002-05-17 07:58:59 51°20.687 3°1.7 13.6 235 14.5 101300 87
2002-05-17 07:59:04 51°20.694 3°1.724 13.2 232 14.5 101300 87
2002-05-17 07:59:08 51°20.698 3°1.744 13.6 233 14.5 101300 87
2002-05-17 07:59:14 51°20.706 3°1.773 14.1 232 14.5 101300 87
2002-05-17 07:59:19 51°20.712 3°1.798 13.3 233 14.5 101300 87
2002-05-17 07:59:24 51°20.718 3°1.822 13.1 233 14.5 101300 87
2002-05-17 07:59:29 51°20.724 3°1.846 13.4 236 14.5 101300 87
2002-05-17 07:59:34 51°20.73 3°1.871 12.7 232 14.5 101300 87
2002-05-17 07:59:39 51°20.736 3°1.895 13.3 233 14.5 101300 87
2002-05-17 07:59:44 51°20.742 3°1.92 13 233 14.5 101300 87
2002-05-17 07:59:49 51°20.749 3°1.944 13 234 14.5 101300 87
2002-05-17 07:59:54 51°20.755 3°1.968 13.7 234 14.5 101300 87
2002-05-17 07:59:59 51°20.761 3°1.993 14.2 235 14.5 101300 87
2002-05-17 08:00:04 51°20.767 3°2.018 13.3 232 14.5 101300 87
2002-05-17 08:00:08 51°20.772 3°2.037 12.9 234 14.5 101290 87
2002-05-17 08:00:14 51°20.778 3°2.067 13.7 235 14.5 101290 87
2002-05-17 08:00:19 51°20.784 3°2.091 14.2 233 14.5 101300 87
2002-05-17 08:00:24 51°20.79 3°2.116 13 233 14.5 101300 87
2002-05-17 08:00:28 51°20.795 3°2.135 13.9 233 14.5 101300 87
2002-05-17 08:00:34 51°20.803 3°2.164 14 233 14.5 101300 87
2002-05-17 08:00:39 51°20.809 3°2.188 13.9 233 14.5 101300 87
2002-05-17 08:00:44 51°20.816 3°2.213 13.6 232 14.5 101300 87
2002-05-17 08:00:49 51°20.822 3°2.237 13.6 232 14.5 101300 87
2002-05-17 08:00:54 51°20.829 3°2.261 13.1 233 14.5 101300 87
2002-05-17 08:00:59 51°20.835 3°2.285 13.4 234 14.5 101290 87
2002-05-17 08:01:04 51°20.841 3°2.31 14.1 233 14.5 101290 87
2002-05-17 08:01:09 51°20.846 3°2.334 13.8 232 14.5 101290 87
2002-05-17 08:01:14 51°20.852 3°2.359 14.1 234 14.5 101290 87
2002-05-17 08:01:19 51°20.858 3°2.384 14.4 233 14.5 101300 86
2002-05-17 08:01:24 51°20.864 3°2.408 13.8 232 14.5 101300 86
2002-05-17 08:01:29 51°20.871 3°2.432 13.5 234 14.5 101300 86
2002-05-17 08:01:34 51°20.877 3°2.456 14.3 233 14.5 101300 86
2002-05-17 08:01:39 51°20.883 3°2.481 13.3 231 14.5 101300 86
2002-05-17 08:01:44 51°20.889 3°2.505 14.1 233 14.5 101300 86
2002-05-17 08:01:49 51°20.896 3°2.529 13.7 235 14.5 101300 86
2002-05-17 08:01:54 51°20.902 3°2.553 13.3 234 14.5 101300 86
2002-05-17 08:01:59 51°20.908 3°2.578 13.3 235 14.5 101300 86
2002-05-17 08:02:04 51°20.913 3°2.602 13.1 235 14.5 101300 86
2002-05-17 08:02:08 51°20.918 3°2.622 14 236 14.5 101300 86
2002-05-17 08:02:14 51°20.924 3°2.652 14.1 235 14.5 101300 86
2002-05-17 08:02:19 51°20.93 3°2.676 13.7 235 14.5 101290 86
2002-05-17 08:02:24 51°20.935 3°2.7 13.4 237 14.5 101290 86
2002-05-17 08:02:28 51°20.94 3°2.72 13.2 234 14.5 101290 86
2002-05-17 08:02:34 51°20.947 3°2.749 13.6 235 14.5 101290 86
2002-05-17 08:02:39 51°20.952 3°2.774 13.6 235 14.5 101300 86
2002-05-17 08:02:44 51°20.958 3°2.798 13.7 236 14.5 101300 86
2002-05-17 08:02:48 51°20.963 3°2.817 13.5 234 14.5 101300 86
2002-05-17 08:02:54 51°20.97 3°2.846 13.3 237 14.5 101300 86
2002-05-17 08:02:59 51°20.977 3°2.87 13.7 235 14.5 101300 86
2002-05-17 08:03:04 51°20.982 3°2.895 14.1 233 14.5 101300 86
2002-05-17 08:03:09 51°20.989 3°2.919 13.4 234 14.5 101300 86
2002-05-17 08:03:14 51°20.994 3°2.943 13.8 237 14.5 101300 86
2002-05-17 08:03:19 51°21.001 3°2.967 13.6 231 14.5 101300 86
2002-05-17 08:03:23 51°21.006 3°2.987 13.6 235 14.5 101300 86
2002-05-17 08:03:29 51°21.013 3°3.016 13.6 235 14.5 101300 86
2002-05-17 08:03:33 51°21.018 3°3.036 12.9 233 14.5 101300 86
2002-05-17 08:03:39 51°21.025 3°3.065 13.8 236 14.5 101300 86
2002-05-17 08:03:44 51°21.03 3°3.089 13.3 232 14.5 101300 86
2002-05-17 08:03:49 51°21.036 3°3.114 13.4 232 14.6 101290 86
2002-05-17 08:03:54 51°21.042 3°3.138 13.9 234 14.6 101290 86
2002-05-17 08:03:59 51°21.048 3°3.162 13.8 234 14.6 101300 86
2002-05-17 08:04:04 51°21.054 3°3.187 13.9 233 14.6 101300 86
2002-05-17 08:04:08 51°21.059 3°3.206 14 233 14.6 101300 86
2002-05-17 08:04:14 51°21.066 3°3.235 14.3 234 14.6 101300 86
2002-05-17 08:04:19 51°21.073 3°3.26 13.5 234 14.6 101290 86
2002-05-17 08:04:24 51°21.079 3°3.284 13.7 233 14.6 101290 86
2002-05-17 08:04:29 51°21.085 3°3.308 13.1 234 14.6 101300 86
2002-05-17 08:04:34 51°21.091 3°3.332 13.6 234 14.6 101300 86
2002-05-17 08:04:39 51°21.098 3°3.356 13.2 232 14.6 101290 86
2002-05-17 08:04:44 51°21.104 3°3.38 13.4 233 14.6 101290 86
2002-05-17 08:04:49 51°21.111 3°3.404 13.7 234 14.6 101290 86
2002-05-17 08:04:54 51°21.118 3°3.428 14 233 14.6 101290 86
2002-05-17 08:04:59 51°21.125 3°3.452 13.9 232 14.6 101290 86
2002-05-17 08:05:04 51°21.131 3°3.476 14.3 232 14.6 101290 86
2002-05-17 08:05:09 51°21.138 3°3.5 14.4 233 14.6 101300 86
2002-05-17 08:05:14 51°21.145 3°3.523 14.3 233 14.6 101300 86
2002-05-17 08:05:19 51°21.152 3°3.547 13.7 233 14.6 101300 86
2002-05-17 08:05:24 51°21.159 3°3.571 14 234 14.6 101300 86
2002-05-17 08:05:29 51°21.165 3°3.595 13.3 235 14.6 101290 86
2002-05-17 08:05:34 51°21.172 3°3.619 13.3 235 14.6 101290 86
2002-05-17 08:05:39 51°21.179 3°3.643 14.1 232 14.6 101290 86
2002-05-17 08:05:44 51°21.186 3°3.667 14 236 14.6 101290 86
2002-05-17 08:05:48 51°21.191 3°3.686 14.4 234 14.6 101290 86
2002-05-17 08:05:54 51°21.199 3°3.715 14.1 233 14.6 101290 86
2002-05-17 08:05:59 51°21.205 3°3.739 13.5 235 14.6 101300 86
2002-05-17 08:06:04 51°21.212 3°3.763 13.9 234 14.6 101300 86
2002-05-17 08:06:09 51°21.218 3°3.787 13.6 234 14.6 101300 86
2002-05-17 08:06:14 51°21.225 3°3.811 13.5 233 14.6 101300 86
2002-05-17 08:06:19 51°21.232 3°3.836 14.4 234 14.6 101300 86
2002-05-17 08:06:24 51°21.238 3°3.86 13.8 233 14.6 101300 86
2002-05-17 08:06:29 51°21.245 3°3.884 14.3 233 14.6 101300 86
2002-05-17 08:06:34 51°21.251 3°3.908 14.1 235 14.6 101300 86
2002-05-17 08:06:38 51°21.257 3°3.927 14.1 233 14.6 101300 86
2002-05-17 08:06:43 51°21.263 3°3.951 14.3 233 14.6 101300 86
2002-05-17 08:06:48 51°21.27 3°3.975 14.2 235 14.6 101300 86
2002-05-17 08:06:54 51°21.277 3°4.004 13.9 234 14.6 101300 86
2002-05-17 08:06:59 51°21.284 3°4.028 13.4 235 14.6 101290 86
2002-05-17 08:07:04 51°21.29 3°4.053 14 234 14.6 101290 86
2002-05-17 08:07:09 51°21.296 3°4.077 14 233 14.6 101290 86
2002-05-17 08:07:14 51°21.303 3°4.101 13.8 233 14.6 101290 86
2002-05-17 08:07:19 51°21.309 3°4.125 13.6 233 14.6 101290 86
2002-05-17 08:07:24 51°21.315 3°4.149 13.8 234 14.6 101290 86
2002-05-17 08:07:29 51°21.322 3°4.173 14.2 233 14.6 101280 86
2002-05-17 08:07:34 51°21.328 3°4.197 13.4 235 14.6 101280 86
2002-05-17 08:07:39 51°21.335 3°4.221 13 233 14.6 101290 86
2002-05-17 08:07:44 51°21.341 3°4.245 13.9 232 14.6 101290 86
2002-05-17 08:07:49 51°21.348 3°4.269 14.7 234 14.6 101290 86
2002-05-17 08:07:54 51°21.354 3°4.293 13 233 14.6 101290 86
2002-05-17 08:07:59 51°21.361 3°4.317 13.7 232 14.6 101290 86
2002-05-17 08:08:03 51°21.366 3°4.336 14.3 235 14.6 101290 86
2002-05-17 08:08:09 51°21.374 3°4.365 13.1 234 14.6 101290 86
2002-05-17 08:08:14 51°21.38 3°4.389 13.9 234 14.6 101290 86
2002-05-17 08:08:18 51°21.385 3°4.408 13.1 233 14.6 101290 86
2002-05-17 08:08:23 51°21.392 3°4.432 14.1 235 14.6 101290 86
2002-05-17 08:08:28 51°21.398 3°4.456 13.6 233 14.6 101290 86
2002-05-17 08:08:34 51°21.406 3°4.485 14.1 232 14.6 101290 86
2002-05-17 08:08:39 51°21.413 3°4.509 13.8 233 14.6 101300 86
2002-05-17 08:08:43 51°21.418 3°4.528 14.3 233 14.6 101300 86
2002-05-17 08:08:49 51°21.425 3°4.557 13.7 234 14.6 101290 86
2002-05-17 08:08:54 51°21.432 3°4.581 14.6 235 14.6 101290 86
2002-05-17 08:08:58 51°21.437 3°4.6 14.9 233 14.6 101290 86
2002-05-17 08:09:04 51°21.444 3°4.629 13.8 233 14.6 101290 86
2002-05-17 08:09:08 51°21.45 3°4.649 13.6 234 14.6 101290 86
2002-05-17 08:09:14 51°21.457 3°4.678 14.5 233 14.6 101290 86
2002-05-17 08:09:19 51°21.464 3°4.701 13.7 234 14.6 101290 86
2002-05-17 08:09:24 51°21.471 3°4.725 14 233 14.6 101290 86
2002-05-17 08:09:29 51°21.478 3°4.749 14.3 234 14.6 101290 86
2002-05-17 08:09:34 51°21.485 3°4.773 14.6 234 14.6 101290 86
2002-05-17 08:09:39 51°21.492 3°4.797 14.6 234 14.6 101290 86
2002-05-17 08:09:44 51°21.499 3°4.82 14.2 234 14.6 101290 86
2002-05-17 08:09:49 51°21.506 3°4.844 14.3 235 14.6 101290 86
2002-05-17 08:09:53 51°21.511 3°4.863 14.3 234 14.6 101290 86
2002-05-17 08:09:59 51°21.519 3°4.892 14.7 235 14.6 101290 86
2002-05-17 08:10:04 51°21.525 3°4.916 14.2 233 14.6 101290 86
2002-05-17 08:10:08 51°21.53 3°4.935 13.6 234 14.6 101290 86
2002-05-17 08:10:14 51°21.537 3°4.963 14.8 234 14.6 101290 86
2002-05-17 08:10:19 51°21.544 3°4.987 13.8 235 14.7 101290 86
2002-05-17 08:10:23 51°21.549 3°5.006 13 234 14.7 101290 86
2002-05-17 08:10:28 51°21.556 3°5.029 14.5 234 14.7 101290 85
2002-05-17 08:10:34 51°21.564 3°5.058 13.7 236 14.7 101290 85
2002-05-17 08:10:39 51°21.57 3°5.082 13.9 235 14.7 101290 85
2002-05-17 08:10:44 51°21.577 3°5.106 14.3 233 14.7 101290 85
2002-05-17 08:10:49 51°21.583 3°5.13 13.5 233 14.7 101290 85
2002-05-17 08:10:54 51°21.59 3°5.153 13.7 233 14.7 101290 85
2002-05-17 08:10:59 51°21.596 3°5.177 14.8 234 14.7 101290 85
2002-05-17 08:11:04 51°21.602 3°5.201 14.5 234 14.7 101290 85
2002-05-17 08:11:09 51°21.609 3°5.225 14.7 234 14.7 101290 85
2002-05-17 08:11:14 51°21.615 3°5.249 14.7 234 14.7 101290 85
2002-05-17 08:11:18 51°21.621 3°5.268 14 235 14.7 101290 85
2002-05-17 08:11:24 51°21.629 3°5.296 14.1 234 14.7 101290 85
2002-05-17 08:11:29 51°21.635 3°5.32 14.5 234 14.7 101290 85
2002-05-17 08:11:34 51°21.642 3°5.344 13.2 234 14.7 101290 85
2002-05-17 08:11:39 51°21.648 3°5.368 14.4 233 14.7 101280 85
2002-05-17 08:11:44 51°21.655 3°5.391 14.4 234 14.7 101280 85
2002-05-17 08:11:49 51°21.661 3°5.415 14 234 14.7 101290 85
2002-05-17 08:11:54 51°21.668 3°5.439 15.2 231 14.7 101290 85
2002-05-17 08:11:59 51°21.675 3°5.463 14 230 14.7 101290 85
2002-05-17 08:12:04 51°21.681 3°5.487 14.6 234 14.7 101290 85
2002-05-17 08:12:09 51°21.688 3°5.51 14.5 234 14.7 101290 85
2002-05-17 08:12:14 51°21.695 3°5.534 14.3 235 14.7 101290 85
2002-05-17 08:12:19 51°21.702 3°5.558 13.9 233 14.7 101290 85
2002-05-17 08:12:24 51°21.709 3°5.582 14.3 232 14.7 101290 85
2002-05-17 08:12:28 51°21.714 3°5.601 14.2 234 14.7 101290 85
2002-05-17 08:12:34 51°21.72 3°5.629 14.9 234 14.7 101290 85
2002-05-17 08:12:39 51°21.727 3°5.653 14.1 233 14.7 101290 85
2002-05-17 08:12:44 51°21.734 3°5.677 14.3 236 14.7 101290 85
2002-05-17 08:12:49 51°21.741 3°5.701 15 232 14.7 101290 85
2002-05-17 08:12:54 51°21.748 3°5.725 14.5 236 14.7 101290 85
2002-05-17 08:12:59 51°21.756 3°5.75 14.8 236 14.7 101290 85
2002-05-17 08:13:04 51°21.763 3°5.774 13.8 234 14.7 101290 85
2002-05-17 08:13:09 51°21.77 3°5.798 14.4 233 14.8 101290 85
2002-05-17 08:13:13 51°21.775 3°5.817 13.5 235 14.8 101290 85
2002-05-17 08:13:19 51°21.783 3°5.845 13.9 236 14.8 101290 85
2002-05-17 08:13:24 51°21.789 3°5.868 13.9 233 14.8 101290 85
2002-05-17 08:13:29 51°21.796 3°5.891 14.4 234 14.8 101290 85
2002-05-17 08:13:34 51°21.802 3°5.914 13.8 234 14.8 101290 85
2002-05-17 08:13:39 51°21.808 3°5.937 14.3 234 14.8 101290 85
2002-05-17 08:13:44 51°21.814 3°5.96 14.6 235 14.8 101290 85
2002-05-17 08:13:49 51°21.82 3°5.983 14.5 234 14.8 101290 85
2002-05-17 08:13:54 51°21.827 3°6.006 13.3 234 14.8 101290 85
2002-05-17 08:13:58 51°21.832 3°6.025 14.8 234 14.8 101300 85
2002-05-17 08:14:04 51°21.839 3°6.053 15.5 235 14.8 101300 85
2002-05-17 08:14:08 51°21.844 3°6.072 13.8 235 14.8 101290 85
2002-05-17 08:14:14 51°21.852 3°6.1 15.2 233 14.8 101290 85
2002-05-17 08:14:19 51°21.858 3°6.123 14.4 234 14.8 101290 85
2002-05-17 08:14:24 51°21.865 3°6.147 14.5 234 14.8 101290 85
2002-05-17 08:14:28 51°21.87 3°6.166 14.4 234 14.8 101290 85
2002-05-17 08:14:34 51°21.878 3°6.193 14.2 233 14.8 101290 85
2002-05-17 08:14:39 51°21.885 3°6.217 14 233 14.8 101290 85
2002-05-17 08:14:44 51°21.891 3°6.24 15 235 14.8 101290 85
2002-05-17 08:14:49 51°21.898 3°6.263 14.9 235 14.8 101290 85
2002-05-17 08:14:54 51°21.904 3°6.287 15.1 235 14.8 101290 85
2002-05-17 08:14:59 51°21.911 3°6.31 15 236 14.8 101290 85
2002-05-17 08:15:04 51°21.917 3°6.334 13.9 234 14.8 101290 85
2002-05-17 08:15:08 51°21.922 3°6.353 14.7 235 14.8 101290 85
2002-05-17 08:15:14 51°21.93 3°6.381 15.3 234 14.8 101290 85
2002-05-17 08:15:19 51°21.936 3°6.405 14.9 235 14.8 101290 85
2002-05-17 08:15:24 51°21.943 3°6.428 14.5 233 14.8 101290 85
2002-05-17 08:15:28 51°21.949 3°6.447 14.3 235 14.8 101290 85
2002-05-17 08:15:34 51°21.957 3°6.474 15.2 235 14.8 101290 85
2002-05-17 08:15:39 51°21.963 3°6.498 14.9 233 14.8 101290 85
2002-05-17 08:15:42 51°21.967 3°6.512 15.2 237 14.8 101290 85
2002-05-17 08:15:49 51°21.977 3°6.545 14.5 238 14.8 101290 85
2002-05-17 08:15:54 51°21.983 3°6.569 15.2 236 14.8 101290 85
2002-05-17 08:15:59 51°21.99 3°6.593 15.2 232 14.8 101290 85
2002-05-17 08:16:03 51°21.995 3°6.612 14.5 236 14.8 101290 85
2002-05-17 08:16:09 51°22.003 3°6.64 14.5 234 14.8 101280 84
2002-05-17 08:16:14 51°22.01 3°6.663 14.3 236 14.8 101280 84
2002-05-17 08:16:19 51°22.017 3°6.687 14.5 233 14.8 101280 84
2002-05-17 08:16:24 51°22.023 3°6.711 14.7 235 14.8 101280 84
2002-05-17 08:16:29 51°22.03 3°6.735 15 232 14.8 101290 84
2002-05-17 08:16:34 51°22.037 3°6.759 14.8 233 14.8 101290 84
2002-05-17 08:16:39 51°22.044 3°6.782 13.8 232 14.9 101290 84
2002-05-17 08:16:44 51°22.05 3°6.806 14 235 14.9 101290 84
2002-05-17 08:16:49 51°22.057 3°6.83 14.1 233 14.8 101280 84
2002-05-17 08:16:54 51°22.063 3°6.854 14.2 234 14.8 101280 84
2002-05-17 08:16:59 51°22.07 3°6.878 14.7 234 14.9 101290 84
2002-05-17 08:17:04 51°22.077 3°6.901 13.9 234 14.9 101290 84
2002-05-17 08:17:08 51°22.082 3°6.92 14.5 235 14.8 101290 84
2002-05-17 08:17:14 51°22.09 3°6.949 14.4 233 14.8 101290 84
2002-05-17 08:17:19 51°22.097 3°6.973 14.7 234 14.9 101280 84
2002-05-17 08:17:24 51°22.103 3°6.998 15.2 234 14.9 101280 84
2002-05-17 08:17:28 51°22.108 3°7.017 15 234 14.9 101280 84
2002-05-17 08:17:34 51°22.115 3°7.047 14.3 234 14.9 101280 84
2002-05-17 08:17:39 51°22.12 3°7.071 14.5 235 14.9 101280 84
2002-05-17 08:17:44 51°22.125 3°7.095 14.6 234 14.9 101280 84
2002-05-17 08:17:48 51°22.129 3°7.115 15.4 235 14.9 101290 84
2002-05-17 08:17:54 51°22.136 3°7.145 15 235 14.9 101290 84
2002-05-17 08:17:59 51°22.141 3°7.169 14.4 235 14.9 101280 84
2002-05-17 08:18:04 51°22.146 3°7.194 15.1 234 14.9 101280 84
2002-05-17 08:18:08 51°22.151 3°7.214 14 233 14.9 101280 84
2002-05-17 08:18:14 51°22.157 3°7.243 15 235 14.9 101280 84
2002-05-17 08:18:19 51°22.163 3°7.268 13.8 235 14.9 101280 84
2002-05-17 08:18:24 51°22.168 3°7.293 14.9 235 14.9 101280 84
2002-05-17 08:18:29 51°22.173 3°7.317 15.4 233 14.9 101280 84
2002-05-17 08:18:34 51°22.179 3°7.342 14.5 235 14.9 101280 84
2002-05-17 08:18:39 51°22.184 3°7.366 13.9 232 14.9 101280 84
2002-05-17 08:18:44 51°22.189 3°7.39 15 234 14.9 101280 84
2002-05-17 08:18:49 51°22.194 3°7.415 14.9 232 14.9 101290 84
2002-05-17 08:18:54 51°22.2 3°7.44 14.5 236 14.9 101290 84
2002-05-17 08:18:59 51°22.205 3°7.465 14.4 235 14.9 101280 84
2002-05-17 08:19:04 51°22.21 3°7.489 14.2 234 14.9 101280 84
2002-05-17 08:19:09 51°22.215 3°7.514 14.7 233 14.9 101290 84
2002-05-17 08:19:14 51°22.22 3°7.539 14.8 234 14.9 101290 84
2002-05-17 08:19:19 51°22.225 3°7.563 14.8 232 15 101280 84
2002-05-17 08:19:24 51°22.231 3°7.587 14.9 236 15 101280 84
2002-05-17 08:19:29 51°22.236 3°7.612 15.3 232 15 101290 84
2002-05-17 08:19:34 51°22.242 3°7.636 14.1 233 15 101290 84
2002-05-17 08:19:39 51°22.247 3°7.66 14.4 231 15 101290 84
2002-05-17 08:19:44 51°22.252 3°7.685 14.7 234 15 101290 84
2002-05-17 08:19:49 51°22.257 3°7.709 14.1 234 15 101290 84
2002-05-17 08:19:54 51°22.262 3°7.734 15 233 15 101290 84
2002-05-17 08:19:59 51°22.267 3°7.758 15.2 233 15 101290 84
2002-05-17 08:20:04 51°22.272 3°7.782 15.5 233 15 101290 84
2002-05-17 08:20:09 51°22.277 3°7.806 14.4 232 15 101280 84
2002-05-17 08:20:14 51°22.282 3°7.831 14.3 232 15 101280 84
2002-05-17 08:20:19 51°22.287 3°7.854 14.6 230 15 101290 84
2002-05-17 08:20:24 51°22.293 3°7.879 14.4 233 15 101290 84
2002-05-17 08:20:29 51°22.299 3°7.903 14.4 234 15 101290 83
2002-05-17 08:20:34 51°22.304 3°7.928 15.3 232 15 101290 83
2002-05-17 08:20:39 51°22.31 3°7.952 15 231 15 101290 83
2002-05-17 08:20:44 51°22.314 3°7.976 14.2 232 15 101290 83
2002-05-17 08:20:48 51°22.318 3°7.995 14.5 233 15 101290 83
2002-05-17 08:20:54 51°22.325 3°8.024 14.4 232 15 101290 83
2002-05-17 08:20:59 51°22.33 3°8.048 15.3 232 15 101290 83
2002-05-17 08:21:04 51°22.335 3°8.072 15.2 232 15 101290 83
2002-05-17 08:21:08 51°22.338 3°8.091 14.8 232 15 101300 83
2002-05-17 08:21:13 51°22.343 3°8.116 14.1 232 15 101300 83
2002-05-17 08:21:19 51°22.349 3°8.145 15.3 234 15 101300 83
2002-05-17 08:21:24 51°22.354 3°8.169 14.7 233 15 101300 83
2002-05-17 08:21:28 51°22.358 3°8.188 14.8 233 15 101290 83
2002-05-17 08:21:34 51°22.365 3°8.217 14.5 232 15 101290 83
2002-05-17 08:21:39 51°22.37 3°8.242 15 231 15 101290 83
2002-05-17 08:21:44 51°22.376 3°8.265 14.6 231 15 101290 83
2002-05-17 08:21:49 51°22.381 3°8.289 14.3 234 15 101290 83
2002-05-17 08:21:54 51°22.386 3°8.313 14.5 232 15 101290 83
2002-05-17 08:21:59 51°22.392 3°8.337 14.9 231 15 101290 83
2002-05-17 08:22:04 51°22.397 3°8.361 14 233 15 101290 83
2002-05-17 08:22:09 51°22.402 3°8.385 14.5 232 15.1 101290 83
2002-05-17 08:22:14 51°22.407 3°8.409 14.7 233 15.1 101290 83
2002-05-17 08:22:18 51°22.411 3°8.428 15.1 233 15.1 101290 83
2002-05-17 08:22:24 51°22.417 3°8.457 14 232 15.1 101290 83
2002-05-17 08:22:29 51°22.422 3°8.481 14.2 232 15 101290 83
2002-05-17 08:22:34 51°22.427 3°8.504 15 232 15 101290 83
2002-05-17 08:22:38 51°22.431 3°8.524 14.6 231 15.1 101290 83
2002-05-17 08:22:44 51°22.437 3°8.552 14 233 15.1 101290 83
2002-05-17 08:22:49 51°22.442 3°8.576 14.8 231 15.1 101300 83
2002-05-17 08:22:54 51°22.448 3°8.6 14.9 232 15.1 101300 83
2002-05-17 08:22:59 51°22.453 3°8.624 13.9 231 15.1 101300 83
2002-05-17 08:23:04 51°22.458 3°8.648 14.3 233 15.1 101300 83
2002-05-17 08:23:08 51°22.462 3°8.667 14.1 231 15.1 101300 83
2002-05-17 08:23:14 51°22.469 3°8.695 14.4 233 15.1 101300 83
2002-05-17 08:23:19 51°22.475 3°8.718 14.5 230 15.1 101290 83
2002-05-17 08:23:24 51°22.48 3°8.742 14.6 232 15.1 101290 83